Location: Cheching
(60.0667°N, 164.2167°W)
Time: 10:52:30
(UTC+00:00)

NOAA 19 - Pass Details

Date: 18 January 2021
Orbit: 840 x 862 km, 99.2° (Epoch: 26 February)

Event Time Altitude Azimuth Distance (km) Brightness Sun altitude
Rises 17:56:29 0° 19° (NNE) 3,439 8.4 -11.7°
Reaches altitude 10° 17:58:54 10° 22° (NNE) 2,496 7.7 -11.4°
Maximum altitude 18:04:24 64° 105° (ESE) 938 5.8 -10.8°
Drops below altitude 10° 18:09:50 10° 187° (S) 2,466 7.8 -10.1°
Sets 18:12:13 0° 190° (S) 3,395 8.5 -9.9°
